Location: *
(44.3683°N, 6.6958°E)
Time: 14:03:57
(UTC+00:00)

Cosmos 489 Rocket - Pass Details

Date: 14 October 2019
Orbit: 953 x 983 km, 74.0° (Epoch: 14 November)

Event Time Altitude Azimuth Distance (km) Brightness Sun altitude
Rises 18:36:26 0° 198° (SSW) 3,625 7.6 -19.5°
Reaches altitude 10° 18:38:57 10° 198° (SSW) 2,680 6.9 -20.0°
Maximum altitude 18:45:09 89° 114° (ESE) 960 4.4 -21.1°
Drops below altitude 10° 18:51:23 10° 21° (NNE) 2,689 6.7 -22.2°
Sets 18:53:55 0° 22° (NNE) 3,639 7.4 -22.6°
